Location: Hains Lake
(37.8540°N, 99.8578°W)
Time: 04:26:50
(UTC+00:00)

Tiros 1 despin weight - Pass Details

Date: 26 April 2021
Orbit: 593 x 642 km, 48.2° (Epoch: 07 May)

Event Time Altitude Azimuth Distance (km) Brightness Sun altitude
Rises 10:05:07 0° 257° (WSW) 2,928 - -19.1°
Reaches altitude 10° 10:07:33 10° 264° (W) 2,016 - -18.7°
Exits shadow 10:09:55 26° 282° (WNW) 1,232 ? -18.4°
Maximum altitude 10:11:58 42° 336° (NNW) 900 ? -18.0°
Drops below altitude 10° 10:16:20 10° 47° (NE) 1,996 ? -17.3°
Sets 10:18:45 0° 55° (NE) 2,895 ? -16.9°
